Marysville, OH

7:13 AM EST on February 11, 2016 (GMT -0500)
Marysville

Weather History for KMRT - October, 2013

Change the Weather History Date:

Friday, October 11, 2013

  Actual Average (KDLZ) Record (KDLZ)
Temperature  
Mean Temperature 60 °F -  
Max Temperature 77 °F 66 °F 85 °F (1954)
Min Temperature 42 °F 39 °F 19 °F (1964)
Degree Days  
Heating Degree Days 6    
Growing Degree Days 10 (Base 50)    
Moisture  
Dew Point 43 °F    
Average Humidity 65    
Maximum Humidity 95    
Minimum Humidity 26    
Precipitation  
Precipitation 0.00 in - - ()
Sea Level Pressure  
Sea Level Pressure 30.09 in    
Wind  
Wind Speed 1 mph (NE)    
Max Wind Speed 7 mph    
Max Gust Speed -    
Visibility 9 miles    
Events      
Averages and records for this station are not official NWS values.
T = Trace of Precipitation, MM = Missing Value Source: NWS Daily Summary

Daily Weather History Graph

Daily Weather History Graph

Search for Another Location

Airport or City:

Trip Planner

Search our weather history database for the weather conditions in past years. The results will help you decide how hot, cold, wet, or windy it might be!

Date:

Astronomy

Oct. 11, 2013 Rise Set
Actual Time 7:40 AM EDT 6:59 PM EDT
Civil Twilight 7:12 AM EDT 7:26 PM EDT
Nautical Twilight 6:41 AM EDT 7:57 PM EDT
Astronomical Twilight 6:09 AM EDT 8:29 PM EDT
Moon 2:21 PM EDT No Moon Set
Length of Visible Light 12h 13m
Length of Day
11h 19m
Waxing Crescent, 47% of the Moon is Illuminated
Oct 11
Waxing Crescent
Oct 11
First Quarter
Oct 18
Full
Oct 26
Last Quarter
Nov 3
New

Hourly Weather History & Observations

Time (EDT) Temp. Dew Point Humidity Pressure Visibility Wind Dir Wind Speed Gust Speed Precip Events Conditions
12:13 AM 49.3 °F 43.0 °F 79% 30.11 in 10.0 mi Calm Calm - N/A   Clear
12:34 AM 49.3 °F 43.0 °F 79% 30.10 in 10.0 mi Calm Calm - N/A   Clear
12:54 AM 48.4 °F 42.4 °F 80% 30.10 in 10.0 mi Calm Calm - N/A   Clear
1:13 AM 45.7 °F 42.1 °F 87% 30.10 in 10.0 mi Calm Calm - N/A   Clear
1:34 AM 47.5 °F 43.7 °F 87% 30.10 in 10.0 mi Calm Calm - N/A   Clear
1:54 AM 49.5 °F 43.9 °F 81% 30.10 in 10.0 mi Calm Calm - N/A   Clear
2:13 AM 48.2 °F 43.5 °F 84% 30.10 in 10.0 mi Calm Calm - N/A   Clear
2:33 AM 46.9 °F 43.2 °F 87% 30.09 in 10.0 mi Calm Calm - N/A   Clear
2:54 AM 47.5 °F 43.5 °F 86% 30.09 in 10.0 mi Calm Calm - N/A   Clear
3:13 AM 48.0 °F 43.9 °F 86% 30.09 in 10.0 mi Calm Calm - N/A   Clear
3:33 AM 46.6 °F 43.2 °F 88% 30.09 in 10.0 mi Calm Calm - N/A   Clear
3:54 AM 46.8 °F 43.3 °F 88% 30.08 in 10.0 mi Calm Calm - N/A   Clear
4:13 AM 46.8 °F 43.7 °F 89% 30.08 in 10.0 mi Calm Calm - N/A   Clear
4:34 AM 45.5 °F 42.4 °F 89% 30.09 in 10.0 mi Calm Calm - N/A   Clear
4:53 AM 46.8 °F 44.1 °F 90% 30.08 in 10.0 mi Calm Calm - N/A   Clear
5:13 AM 43.2 °F 40.8 °F 91% 30.09 in 10.0 mi Calm Calm - N/A   Clear
5:34 AM 44.4 °F 42.4 °F 93% 30.09 in 10.0 mi Calm Calm - N/A   Clear
5:53 AM 42.8 °F 40.5 °F 91% 30.09 in 10.0 mi Calm Calm - N/A   Clear
6:13 AM 42.6 °F 40.6 °F 93% 30.09 in 7.0 mi Calm Calm - N/A   Clear
6:33 AM 44.1 °F 42.4 °F 94% 30.09 in 10.0 mi Calm Calm - N/A   Clear
6:53 AM 43.5 °F 42.1 °F 95% 30.10 in 7.0 mi Calm Calm - N/A   Clear
7:14 AM 43.2 °F 41.4 °F 93% 30.11 in 7.0 mi Calm Calm - N/A   Clear
7:33 AM 46.0 °F 44.4 °F 94% 30.11 in 7.0 mi Calm Calm - N/A   Clear
7:53 AM 45.7 °F 43.2 °F 91% 30.12 in 7.0 mi Calm Calm - N/A   Clear
8:14 AM 46.4 °F 43.9 °F 91% 30.13 in 7.0 mi Calm Calm - N/A   Clear
8:34 AM 48.4 °F 45.7 °F 90% 30.13 in 7.0 mi Calm Calm - N/A   Clear
8:53 AM 51.6 °F 45.9 °F 81% 30.13 in 10.0 mi Calm Calm - N/A   Clear
9:13 AM 53.4 °F 46.0 °F 76% 30.14 in 10.0 mi Calm Calm - N/A   Clear
9:33 AM 55.8 °F 45.5 °F 68% 30.14 in 10.0 mi Calm Calm - N/A   Clear
9:53 AM 58.3 °F 45.7 °F 63% 30.14 in 10.0 mi East 3.5 mph - N/A   Clear
10:14 AM 60.3 °F 44.8 °F 57% 30.14 in 10.0 mi Calm Calm - N/A   Clear
10:33 AM 62.6 °F 42.8 °F 48% 30.14 in 10.0 mi ENE 3.5 mph - N/A   Clear
10:53 AM 64.6 °F 46.6 °F 52% 30.13 in 10.0 mi Calm Calm - N/A   Clear
11:14 AM 65.8 °F 47.5 °F 52% 30.13 in 10.0 mi Calm Calm - N/A   Clear
11:33 AM 66.9 °F 45.1 °F 45% 30.13 in 10.0 mi Calm Calm - N/A   Clear
11:53 AM 68.4 °F 43.3 °F 40% 30.12 in 10.0 mi Calm Calm - N/A   Clear
12:14 PM 70.0 °F 40.5 °F 34% 30.12 in 10.0 mi NE 5.8 mph - N/A   Clear
12:34 PM 70.7 °F 41.4 °F 35% 30.11 in 10.0 mi NE 4.6 mph - N/A   Clear
12:53 PM 71.8 °F 39.6 °F 31% 30.11 in 10.0 mi Calm Calm - N/A   Clear
1:13 PM 73.4 °F 40.1 °F 30% 30.10 in 10.0 mi East 4.6 mph - N/A   Clear
1:34 PM 73.0 °F 40.1 °F 30% 30.09 in 10.0 mi NNE 3.5 mph - N/A   Clear
1:53 PM 73.6 °F 42.6 °F 33% 30.08 in 10.0 mi NNE 3.5 mph - N/A   Clear
2:13 PM 74.1 °F 42.4 °F 32% 30.07 in 10.0 mi East 3.5 mph - N/A   Clear
2:34 PM 75.0 °F 41.5 °F 30% 30.07 in 10.0 mi Calm Calm - N/A   Clear
2:54 PM 75.6 °F 39.9 °F 28% 30.07 in 10.0 mi ESE 3.5 mph - N/A   Clear
3:13 PM 75.4 °F 40.1 °F 28% 30.07 in 10.0 mi NE 5.8 mph - N/A   Clear
3:34 PM 76.3 °F 39.7 °F 27% 30.06 in 10.0 mi NE 5.8 mph - N/A   Clear
3:53 PM 77.0 °F 39.2 °F 26% 30.06 in 10.0 mi NE 5.8 mph - N/A   Clear
4:14 PM 76.8 °F 41.4 °F 28% 30.06 in 10.0 mi NE 4.6 mph - N/A   Clear
4:33 PM 76.3 °F 39.9 °F 27% 30.06 in 10.0 mi North 5.8 mph - N/A   Clear
4:53 PM 76.3 °F 39.2 °F 26% 30.05 in 10.0 mi East 5.8 mph - N/A   Clear
5:14 PM 75.9 °F 38.8 °F 26% 30.05 in 10.0 mi NNE 5.8 mph - N/A   Clear
5:33 PM 75.6 °F 40.5 °F 28% 30.05 in 10.0 mi ENE 6.9 mph - N/A   Clear
5:53 PM 74.7 °F 39.0 °F 28% 30.05 in 10.0 mi NE 3.5 mph - N/A   Clear
6:14 PM 73.4 °F 40.1 °F 30% 30.05 in 10.0 mi NE 4.6 mph - N/A   Clear
6:33 PM 71.4 °F 40.1 °F 32% 30.05 in 10.0 mi NE 4.6 mph - N/A   Clear
6:53 PM 66.7 °F 43.3 °F 43% 30.06 in 7.0 mi NE 3.5 mph - N/A   Clear
7:14 PM 62.1 °F 46.6 °F 57% 30.06 in 10.0 mi Calm Calm - N/A   Clear
7:33 PM 57.9 °F 46.4 °F 65% 30.06 in 10.0 mi Calm Calm - N/A   Clear
7:53 PM 56.3 °F 44.6 °F 65% 30.07 in 10.0 mi Calm Calm - N/A   Clear
8:14 PM 55.4 °F 46.0 °F 71% 30.07 in 10.0 mi Calm Calm - N/A   Clear
8:33 PM 54.1 °F 46.6 °F 76% 30.07 in 10.0 mi Calm Calm - N/A   Clear
8:53 PM 54.0 °F 46.4 °F 76% 30.07 in 7.0 mi Calm Calm - N/A   Clear
9:14 PM 51.8 °F 46.2 °F 81% 30.07 in 4.0 mi Calm Calm - N/A   Clear
9:33 PM 51.3 °F 46.0 °F 82% 30.07 in 10.0 mi Calm Calm - N/A   Clear
9:54 PM 52.5 °F 46.4 °F 80% 30.07 in 4.0 mi Calm Calm - N/A   Clear
10:14 PM 52.0 °F 45.9 °F 80% 30.07 in 2.5 mi Calm Calm - N/A   Clear
10:33 PM 51.6 °F 46.0 °F 81% 30.07 in 10.0 mi Calm Calm - N/A   Clear
10:54 PM 49.6 °F 45.3 °F 85% 30.07 in 10.0 mi Calm Calm - N/A   Clear
11:14 PM 51.4 °F 46.6 °F 83% 30.07 in 10.0 mi Calm Calm - N/A   Clear
11:33 PM 51.6 °F 46.0 °F 81% 30.08 in 10.0 mi Calm Calm - N/A   Clear
11:53 PM 50.0 °F 45.3 °F 84% 30.08 in 10.0 mi Calm Calm - N/A   Clear